Volver al catálogo

STARLINK-5539

ActivoComunicacionesVLEO
NORAD 55747·PAYLOAD·🇺🇸 United States

Lanzado Mar 3, 2023 desde Vandenberg Space Force Base

Loading…

Próximos Pases (próximas 24 horas)

TLE

ActualizadoSource: CelesTrak SupGP

Época: Sep 14, 2026, 20:44 UTC

1 55747C 23028G   26257.86437500 -.00025928  00000+0 -21727-2 0  2573
2 55747  70.0003 127.5482 0002688 266.2320 145.3073 14.98346607    16

Sigue STARLINK-5539 en tiempo real con AllMySat

Download on the App Store